Location: Dürabuch
(48.2640°N, 11.2185°E)
Time: 03:17:07
(UTC+00:00)

Cosmos 1315 Rocket - Pass Details

Date: 23 May 2024
Orbit: 515 x 542 km, 81.2° (Epoch: 13 June)

Event Time Altitude Azimuth Distance (km) Brightness Sun altitude
Exits shadow 01:40:14 20° 242° (WSW) 1,253 4.1 -13.5°
Maximum altitude 01:42:08 31° 289° (WNW) 952 3.9 -13.3°
Drops below altitude 10° 01:45:39 10° 353° (N) 1,786 6.1 -13.0°
Sets 01:48:01 0° 4° (N) 2,687 7.4 -12.8°
